Home   Weather   Rygge   Past weeks

Flag for Norway Past Weather in Rygge, Norway — Yesterday and Last 2 Weeks

Now
50 °F

Low clouds.


Feels Like: 50 °F
Forecast: 54 / 65 °F
Wind: 1 mph from Northeast

Location: Rygge

Current Time: Aug 21, 2017 at 6:38:01 am

Latest Report: Aug 21, 2017 at 5:00 am


Visibility: 0 mi

Pressure: 29.90 "Hg

Humidity: 97%

Dew Point: 49 °F

Location of RyggeLocation

Past Weather in Rygge — Graph

°F

Rygge Temperature Yesterday

Maximum temperature yesterday: 62 °F (at 12:00 pm)
Minimum temperature yesterday: 53 °F (at 11:00 pm)
Average temperature yesterday: 58 °F

High & Low Weather Summary for the Past Weeks

 TemperatureHumidityPressure
High70 °F (Aug 6, 6:00 pm)98% (Aug 6, 5:00 am)30.20 "Hg (Aug 6, 5:00 am)
Low46 °F (Aug 14, 3:00 am)41% (Aug 13, 2:00 pm)29.58 "Hg (Aug 12, 11:00 pm)
Average60 °F78%29.89 "Hg
* Reported Aug 6 5:00 am — Aug 21 5:00 am, Rygge. Weather by CustomWeather, © 2017

Note: Actual official high and low records may vary slightly from our data, if they occured in-between our weather recording intervals... More about our weather records

Advertising

Rygge Weather History for the Previous 24 Hours

Scroll right to see more
 ConditionsComfort  
Time TempWeatherWind HumidityBarometerVisibility
5:00 am
Mon, Aug 21
50 °FLow clouds.1 mph97%29.90 "Hg1 mi
4:00 am50 °FOvercast.1 mph97%29.89 "Hg7 mi
3:00 am49 °FClear.1 mph96%29.88 "Hg1 mi
2:00 am50 °FFog.1 mph96%29.87 "Hg1 mi
1:00 am51 °FClear.2 mph96%29.85 "Hg11 mi
12:00 am52 °FClear.2 mph94%29.84 "Hg11 mi
11:00 pm
Sun, Aug 20
53 °FClear.3 mph92%29.83 "Hg17 mi
10:00 pm55 °FClear.3 mph90%29.83 "Hg19 mi
9:00 pm56 °FClear.3 mph88%29.81 "Hg19 mi
8:00 pm60 °FSunny.5 mph80%29.80 "Hg22 mi
7:00 pm60 °FPartly sunny.5 mph77%29.79 "Hg25 mi
6:00 pm61 °FPassing clouds.5 mph76%29.78 "Hg25 mi
5:00 pm61 °FPassing clouds.6 mph77%29.78 "Hg22 mi
4:00 pm61 °FScattered clouds.7 mph72%29.78 "Hg19 mi
3:00 pm62 °FPassing clouds.8 mph72%29.77 "Hg18 mi
2:00 pm61 °FPartly sunny.7 mph75%29.76 "Hg25 mi
1:00 pm62 °FScattered clouds.6 mph73%29.75 "Hg19 mi
12:00 pm62 °FScattered clouds.3 mph77%29.74 "Hg19 mi
11:00 am57 °FOvercast.5 mph88%29.74 "Hg22 mi
10:00 am57 °FOvercast.3 mph93%29.74 "Hg15 mi
9:00 am55 °FRain showers. Overcast.5 mph90%29.73 "Hg11 mi
8:00 am56 °FOvercast.5 mph81%29.72 "Hg28 mi
7:00 am56 °FOvercast.2 mph83%29.72 "Hg28 mi
6:00 am54 °FSunny.3 mph82%29.72 "Hg16 mi
Weather by CustomWeather, © 2017

See weather overviewHow to use our weather pages